Location: Unspecified
(0.0000°N, 0.0000°E)
Time: 17:36:01
(UTC+00:00)

GALILEO-FM4 - Visible Passes

Search period start: 30 November 2022 00:00
Search period end: 10 December 2022 00:00
Orbit: 23217 x 23227 km, 55.2° (Epoch: 29 November)

Date Brightness Start Highest point End Pass type
(mag) Time Alt. Az. Time Alt. Az. Time Alt. Az.
30 Nov ? 03:18:22 10° SSW 06:19:08 56° W 15:46:33 10° SE visible
01 Dec ? 14:11:26 10° NNW 17:31:28 69° W 02:26:52 10° NE visible
03 Dec ? 01:01:16 10° SSW 04:43:59 82° W 09:13:09 10° NE visible
04 Dec ? 11:36:42 10° NW 15:56:10 84° E 19:42:23 10° SSE visible
05 Dec ? 18:19:22 10° NW 19:59:50 19° W 06:31:35 10° NNE daylight
07 Dec ? 04:57:06 10° SW 07:13:16 31° W 17:24:16 10° SSE visible
08 Dec ? 15:45:44 10° NW 18:26:05 43° W 04:17:01 10° NNE visible
